Theta_e
339 341 342 342 343 344 343 343 348 351 355 357 358 358 360 359 361 358 359 363 360 361 361 360 359 361 360 357 356 358 362 363 361 363 362 364 366 367 366 365 367 367 368 370 369 366 368 366 367 367 366 367 367 366 365 365 365 363 363 364 356 355 353 354 353 354 351 347 353 350 352 354 353 355 353 351 351 350 351 352 351 354 355 355 359
342 342 341 342 343 344 345 348 352 351 354 357 358 358 359 360 359 358 359 361 361 361 361 362 363 360 358 358 355 355 358 357 359 362 361 363 368 367 369 369 367 369 370 372 372 370 367 364 367 365 364 366 367 366 366 364 364 363 362 360 358 353 351 353 352 354 347 344 344 343 346 350 354 352 350 348 349 350 348 352 352 350 348 351 354
341 342 341 342 344 343 346 348 350 352 353 355 358 358 358 359 361 361 359 359 360 363 363 362 363 364 360 358 357 355 360 362 359 362 363 362 364 368 370 370 369 371 372 371 371 369 367 367 367 367 367 366 366 365 365 364 363 361 363 359 355 356 353 354 357 357 345 347 350 347 341 340 347 347 349 348 347 348 349 342 349 349 348 351 354
339 341 340 342 344 344 346 348 350 351 354 354 355 357 357 360 362 363 362 360 361 362 363 362 363 366 366 367 365 362 359 362 363 362 364 364 361 363 368 368 368 368 369 368 369 369 368 367 367 365 367 367 365 364 364 363 365 364 363 361 359 352 351 352 355 358 356 351 341 342 342 342 336 343 347 348 348 347 348 345 346 347 346 352 357
341 341 342 343 343 343 346 349 350 350 351 353 354 354 353 358 362 364 363 360 362 363 362 363 363 364 365 365 367 363 362 361 359 357 360 362 361 362 363 367 367 370 369 370 369 370 369 369 366 367 367 367 366 364 364 362 361 365 363 362 359 354 350 352 353 355 356 359 351 345 340 340 341 342 344 343 348 346 346 343 347 349 346 351 347
343 343 342 342 344 346 348 349 349 350 351 353 354 353 354 357 362 364 363 362 360 363 363 364 362 361 361 361 357 358 358 354 353 356 356 355 357 361 365 363 365 369 370 371 370 369 369 368 367 367 368 365 365 366 365 361 360 364 364 363 360 359 358 354 351 355 355 359 358 351 353 345 343 345 345 338 350 349 348 345 347 348 347 349 353
344 345 343 342 344 346 347 349 349 349 352 353 354 354 354 358 362 363 364 363 361 364 364 364 363 363 363 360 358 358 356 357 361 361 358 358 363 361 365 365 368 367 367 370 371 371 369 368 368 367 366 367 367 365 365 361 359 362 364 363 361 361 360 354 354 352 356 357 353 352 353 353 350 347 342 344 341 345 348 346 344 347 347 347 346
342 344 344 344 344 345 346 349 349 349 351 352 353 354 356 361 363 363 364 364 363 364 364 363 363 362 363 361 360 359 356 358 361 362 363 365 361 363 363 364 366 367 366 368 370 369 368 369 369 368 366 368 363 363 362 360 361 365 365 366 366 364 361 356 354 353 353 351 355 354 352 353 354 351 350 346 344 342 342 346 348 347 348 344 346
344 343 344 344 345 344 347 348 349 349 349 350 353 354 356 360 364 364 364 365 364 365 364 362 364 363 364 363 361 361 361 361 362 363 363 363 364 363 366 365 366 367 366 367 367 368 366 369 369 367 367 366 364 364 361 361 362 364 365 366 365 363 362 360 359 356 356 354 356 357 355 352 349 350 351 351 345 343 340 343 345 347 347 347 348
344 345 345 346 347 346 347 348 347 347 348 351 352 354 355 359 362 363 364 364 365 366 364 364 364 364 363 363 362 360 362 364 362 362 364 364 363 364 366 366 363 364 368 367 369 367 369 370 368 368 367 364 363 366 362 362 364 366 365 364 366 362 363 362 360 359 356 358 357 357 356 353 353 351 348 347 347 348 340 342 343 343 345 344 349
344 345 346 346 348 348 347 345 348 348 349 349 350 353 355 355 359 361 364 363 365 366 364 363 363 363 363 364 363 363 362 362 360 362 363 364 362 362 364 366 365 364 364 366 366 367 369 370 368 367 369 368 364 364 364 360 361 362 363 365 365 364 361 365 361 360 359 359 357 357 354 351 351 349 350 350 347 346 345 342 344 345 344 343 349
344 344 345 346 347 348 348 347 347 348 348 349 349 352 354 355 357 360 363 364 364 365 364 362 361 362 363 363 364 364 363 360 361 360 359 361 361 360 364 365 365 365 366 366 364 363 369 370 371 370 368 368 365 367 367 364 363 363 363 365 366 366 366 365 363 359 358 359 355 356 353 353 355 353 351 353 351 350 348 344 345 347 347 347 346
344 344 345 344 344 345 346 348 349 349 349 350 349 350 353 355 357 358 361 364 365 364 363 364 362 362 362 362 363 364 365 364 362 361 362 362 362 362 362 363 365 364 363 363 363 365 368 370 371 370 370 369 371 370 370 367 370 366 367 364 366 365 365 366 361 360 359 358 357 358 355 355 355 354 354 353 352 352 350 346 347 347 343 345 351
344 344 345 345 345 345 347 348 348 349 350 350 350 351 352 353 357 356 361 363 365 363 363 363 363 363 364 363 362 363 364 363 362 361 361 363 364 363 360 358 362 362 362 363 363 364 364 366 371 372 375 375 372 374 371 373 371 369 368 367 365 369 366 364 364 362 361 360 360 358 358 357 356 357 357 354 352 351 350 349 350 350 345 343 346
345 345 344 344 345 347 346 347 348 351 350 351 350 353 355 355 358 359 360 362 364 364 363 363 362 363 363 363 362 363 361 360 362 362 363 362 361 362 363 361 359 362 362 366 366 367 367 368 369 370 373 374 374 369 368 370 372 370 368 368 369 366 365 364 363 359 357 360 359 358 357 357 358 356 357 356 355 353 352 352 351 347 345 342 343
345 344 345 345 347 347 347 348 349 351 353 352 352 354 356 358 362 362 361 362 361 363 362 362 363 362 364 364 362 363 362 361 363 364 364 363 363 363 363 364 364 363 366 367 366 367 367 366 369 368 372 371 371 370 370 368 371 367 368 369 368 365 364 365 364 361 359 361 359 361 359 356 361 359 359 358 358 359 356 357 355 352 347 341 344
346 345 345 346 347 347 347 349 349 350 350 353 355 359 361 362 362 362 363 363 361 363 361 362 363 363 363 363 362 362 360 359 357 360 359 361 362 362 361 362 363 366 363 364 366 366 368 368 367 366 371 371 373 372 369 369 368 367 365 369 366 365 367 367 364 362 362 359 359 361 359 361 362 365 361 360 363 362 357 358 356 353 355 347 345
347 348 347 348 348 348 348 349 351 350 350 355 358 361 362 363 363 362 362 362 359 359 358 360 362 362 362 362 362 362 359 358 357 357 358 360 361 361 362 361 361 361 361 360 364 366 367 366 368 368 369 371 370 370 370 370 370 367 367 366 366 369 368 369 368 365 364 364 361 361 361 361 365 362 361 361 365 365 359 359 358 360 360 354 351
344 347 346 346 347 348 350 350 352 353 354 356 359 360 362 362 362 363 362 361 358 354 355 358 360 359 358 360 360 360 360 359 358 361 360 359 358 358 359 359 360 363 364 365 365 364 366 367 369 368 368 369 370 369 370 371 371 369 368 364 367 369 367 366 369 366 363 363 362 360 363 360 364 364 364 361 366 367 364 362 361 363 362 361 357
345 346 346 346 346 348 350 351 352 354 354 355 359 358 358 360 361 362 363 363 360 354 355 355 356 357 356 359 361 362 362 360 359 359 357 358 358 358 360 357 359 361 362 363 363 362 363 363 364 363 364 366 368 367 367 370 371 369 367 363 365 369 365 367 365 366 361 364 365 362 363 362 364 366 365 364 364 368 368 364 365 365 363 363 361
344 347 347 347 347 347 350 352 353 354 355 355 357 357 358 359 359 362 361 359 358 355 356 357 355 355 356 357 358 359 358 359 357 358 358 358 358 360 358 359 362 361 362 362 362 363 364 363 363 365 363 367 369 368 368 370 370 370 369 366 368 367 366 366 367 366 365 366 367 364 364 364 367 365 366 365 363 362 365 363 365 364 362 364 362
347 348 347 346 347 346 349 351 351 352 354 356 356 356 357 354 354 358 357 360 360 360 361 363 360 357 357 357 357 357 359 357 355 355 356 355 356 358 360 361 359 361 360 361 363 362 363 364 363 364 365 366 368 369 366 367 369 368 369 364 363 365 367 365 366 367 367 364 366 365 363 364 368 367 364 363 361 358 358 357 359 360 360 361 364
345 344 343 344 349 348 346 347 349 349 352 353 353 352 354 355 356 357 357 360 361 362 364 367 364 362 361 359 358 356 356 355 352 352 351 351 353 356 359 358 355 354 360 361 361 361 363 367 365 366 367 368 368 368 367 367 368 367 367 365 362 366 366 365 364 366 364 366 364 364 364 364 362 362 364 362 361 362 362 362 361 362 363 362 363
344 343 341 341 343 343 345 345 345 348 350 351 350 352 352 355 356 358 358 359 361 363 365 366 366 364 365 362 360 359 356 352 349 349 349 350 350 351 355 355 353 351 353 362 363 364 366 368 367 367 368 368 367 367 367 368 367 367 367 367 367 367 366 366 365 364 363 363 362 363 362 363 365 363 362 362 359 361 362 364 362 363 364 360 361
344 343 345 347 347 345 345 347 351 351 348 348 348 350 353 354 357 357 358 360 361 363 364 365 365 365 364 364 362 361 359 359 359 356 351 349 349 348 350 352 351 349 350 358 364 365 366 368 364 365 366 367 367 367 367 365 366 367 367 366 367 367 367 367 367 366 364 364 363 362 361 363 364 361 362 360 361 363 363 361 360 361 361 361 361
343 343 343 343 344 346 347 348 348 347 346 347 352 353 355 356 356 358 358 359 361 362 361 361 362 362 363 362 359 357 358 360 361 361 360 355 352 350 350 350 352 351 352 353 359 362 362 365 366 366 366 367 367 368 368 368 365 364 365 365 366 367 365 366 366 365 365 365 364 364 365 362 360 359 359 361 362 359 359 358 360 361 359 359 360
341 343 343 345 344 344 346 348 349 349 348 348 350 351 353 352 352 356 358 359 360 360 361 362 360 357 357 355 353 357 358 361 363 364 364 362 357 353 351 351 353 352 351 351 353 357 360 361 362 362 362 365 366 365 367 368 367 366 365 365 363 365 365 364 365 362 361 363 363 362 363 361 360 361 359 360 361 361 359 359 360 361 361 360 358
342 342 343 343 343 345 344 345 345 348 350 350 351 352 350 349 348 351 356 357 358 358 358 359 359 357 357 356 357 358 360 363 366 366 366 365 362 358 357 358 358 356 353 353 352 354 356 358 358 358 360 364 366 366 368 368 367 365 364 364 363 362 362 362 362 363 361 360 360 360 358 360 362 363 362 363 363 361 362 362 362 362 362 361 359
337 338 339 338 338 341 343 345 346 347 347 347 348 350 352 352 351 351 354 354 354 355 355 355 357 356 356 358 359 358 360 362 363 363 363 364 365 363 361 361 361 359 356 355 354 353 355 357 357 358 358 361 360 361 362 364 364 363 364 362 362 362 361 360 360 360 361 362 360 359 358 357 361 360 364 367 367 366 360 359 361 363 363 360 360
334 336 336 338 340 339 342 343 344 346 345 345 346 346 348 349 351 353 353 354 354 354 354 354 353 354 356 357 358 359 358 357 357 357 358 360 360 361 361 362 361 360 360 360 359 358 357 356 357 359 358 357 357 358 364 360 362 363 365 362 361 364 363 362 361 361 359 359 359 359 357 357 362 363 366 368 365 361 361 362 363 364 362 362 360
334 336 337 338 338 338 339 340 342 343 341 342 345 346 347 349 351 352 352 353 354 353 355 354 352 353 353 355 355 356 355 353 352 352 355 356 356 358 359 360 360 361 362 364 362 360 357 357 356 356 356 353 354 356 345 346 346 350 359 360 360 363 366 365 363 363 362 360 360 360 361 360 368 369 368 364 363 363 363 361 359 361 363 364 361
335 336 337 336 337 337 338 339 339 338 340 342 344 344 345 345 346 349 352 354 354 353 352 352 353 354 354 352 352 354 354 355 354 353 352 353 354 355 357 357 358 358 361 362 363 363 364 362 359 358 357 355 356 334 333 334 340 341 350 360 358 358 360 362 363 362 362 361 360 359 359 357 359 361 364 367 370 367 361 362 361 360 361 360 359
335 336 336 336 336 336 337 336 336 337 338 340 342 342 341 344 346 348 350 351 351 352 352 352 352 352 353 353 353 353 353 354 355 356 356 356 355 353 354 355 355 358 358 360 363 363 363 363 363 363 361 360 360 333 331 333 333 335 337 352 357 358 356 358 360 362 363 363 364 362 360 358 356 365 362 363 368 368 369 361 359 359 360 356 345
336 336 335 335 334 334 334 334 335 336 335 334 336 337 337 339 340 341 341 341 342 342 343 345 347 349 351 353 355 353 352 353 354 354 354 354 354 353 355 357 357 358 357 359 362 362 363 364 363 363 364 362 357 335 330 330 331 331 333 340 361 362 360 358 359 361 360 363 365 365 363 362 365 367 369 367 369 368 368 369 371 371 371 369 358
334 335 335 334 333 333 332 332 332 331 331 330 329 330 332 334 335 334 334 334 335 334 335 335 336 337 340 344 346 346 347 348 350 351 352 353 353 353 352 353 355 357 356 358 360 360 361 361 360 360 360 356 345 328 327 328 328 329 331 340 361 365 365 362 363 364 366 363 364 364 365 363 366 369 370 365 364 364 366 364 365 364 364 364 367
333 335 335 335 334 333 330 328 329 329 329 329 328 329 329 329 329 329 329 329 330 330 331 331 331 332 333 335 338 339 341 342 345 349 350 348 349 350 351 354 354 357 357 357 357 357 357 357 358 358 357 348 341 322 325 325 324 325 332 356 365 366 364 364 367 367 367 369 367 366 367 366 366 368 345 343 350 360 360 361 361 363 364 361 359
334 335 334 335 334 333 330 328 327 327 326 327 329 328 328 327 327 326 326 326 325 326 327 329 330 331 333 334 335 334 335 337 338 338 339 341 344 345 348 350 353 354 354 353 354 353 355 354 355 356 356 350 343 325 318 319 320 322 340 363 365 364 365 365 365 366 366 366 367 365 366 365 364 355 333 325 331 347 360 361 362 361 360 360 360
332 334 334 333 330 330 330 328 326 325 326 326 327 327 326 324 324 326 326 325 326 323 325 328 329 331 332 334 336 338 338 335 334 333 334 338 340 341 344 348 348 349 351 350 351 350 350 351 350 351 352 344 336 323 314 315 316 318 338 361 363 361 362 362 363 363 365 365 363 359 359 362 359 350 324 323 325 346 359 360 358 358 356 355 358
330 331 331 331 330 329 327 326 324 323 324 325 324 325 323 322 321 321 323 324 325 324 324 325 326 328 331 331 333 333 333 335 336 336 337 338 338 339 342 345 347 348 347 350 352 349 348 349 349 346 344 341 337 329 314 313 313 314 336 359 360 359 358 359 359 360 361 361 358 358 352 349 347 334 319 320 321 338 354 357 357 356 354 355 357
329 330 331 331 330 328 325 323 322 323 325 326 324 323 323 322 323 324 322 321 324 325 325 326 327 329 331 332 330 332 333 333 334 334 336 338 339 339 341 343 346 349 352 349 350 345 342 344 345 345 344 339 334 331 324 311 311 313 317 350 357 355 350 355 357 357 358 358 356 351 340 323 321 317 315 313 316 318 339 350 354 353 352 352 355
327 327 329 327 326 326 324 324 325 325 323 323 324 324 324 325 324 323 320 321 324 326 329 329 329 326 325 328 330 329 329 331 332 333 333 335 336 336 336 339 343 340 344 344 343 339 339 341 342 343 343 342 338 332 325 310 309 310 311 326 345 345 349 352 354 354 354 354 354 354 346 322 315 313 311 308 309 312 321 341 346 346 348 345 339
329 329 327 325 324 324 324 324 326 326 325 325 326 326 325 323 322 322 324 324 323 324 326 328 328 329 328 327 327 329 329 330 332 333 332 331 333 336 335 334 337 337 338 337 336 336 334 336 338 339 341 338 336 333 331 316 310 308 308 312 331 331 327 337 348 349 350 350 348 349 349 329 313 311 308 306 305 310 315 336 353 326 319 322 343
328 327 327 325 324 323 323 324 323 323 323 323 324 324 323 323 322 323 325 327 326 326 324 325 327 327 328 328 328 327 329 330 330 332 331 330 330 332 333 335 336 337 336 334 335 333 333 333 335 337 338 338 335 332 329 327 313 308 307 309 310 322 317 339 339 341 339 340 341 340 339 331 311 306 304 304 306 307 318 340 319 315 318 318 330
326 327 327 326 327 325 324 325 324 325 325 325 324 322 322 321 321 324 325 326 327 327 327 325 325 324 325 325 326 326 328 327 327 328 329 330 329 330 332 333 335 335 334 335 334 335 334 332 331 332 334 337 337 332 327 326 324 312 309 308 310 312 314 327 336 335 336 335 337 335 332 311 305 302 303 306 309 313 330 317 312 314 318 327 341
324 324 326 326 324 323 322 322 323 325 326 327 326 324 324 322 323 325 325 324 324 325 325 324 324 323 324 323 323 325 325 325 324 325 326 326 328 329 327 330 332 333 333 332 332 333 332 331 330 330 331 334 336 337 334 328 324 321 314 313 314 315 317 314 333 335 333 331 323 310 307 308 309 308 307 309 314 317 311 310 310 313 332 342 343
325 325 324 324 323 322 321 320 321 323 324 325 324 324 323 323 324 325 325 325 325 324 324 323 324 324 323 323 322 321 321 322 323 324 324 324 323 324 326 327 327 327 329 331 330 330 329 331 329 330 330 332 333 334 334 332 329 327 325 318 317 319 327 328 330 330 327 318 313 311 311 311 314 320 336 339 336 338 332 327 324 328 340 340 342
324 325 324 323 322 320 320 319 319 320 322 323 324 324 324 324 324 324 324 325 325 324 323 323 323 324 324 324 323 322 321 321 322 321 321 322 321 322 323 325 325 324 324 324 326 327 327 327 328 329 330 331 332 331 329 328 327 326 327 329 332 332 330 329 331 334 329 328 332 330 329 322 319 318 320 322 325 330 336 340 343 341 341 338 339
326 325 325 324 322 321 320 320 320 321 322 322 323 323 324 324 324 325 324 324 324 323 323 323 322 322 322 322 319 316 319 318 318 319 319 319 320 321 321 322 323 322 322 322 323 324 324 325 325 326 327 328 328 328 325 322 322 322 323 324 327 326 327 327 327 326 326 327 328 331 328 339 343 342 340 340 340 342 341 338 338 337 336 337 339
326 326 325 324 323 322 322 320 319 320 321 321 322 322 323 323 323 324 324 322 320 319 320 319 319 319 318 320 319 319 318 317 318 320 318 319 320 322 323 323 321 320 319 320 324 323 324 324 324 325 325 327 328 326 320 308 316 305 313 320 322 322 321 323 321 309 320 329 332 332 333 332 333 330 329 331 330 331 332 334 334 337 339 337 337
325 325 326 324 324 323 322 321 321 322 321 321 321 322 322 321 322 322 322 322 321 320 320 320 321 319 318 318 319 317 317 317 316 317 321 320 313 309 314 321 320 316 309 301 305 319 318 322 325 326 325 323 322 318 302 297 296 297 297 298 299 297 297 308 307 303 312 324 328 330 329 328 328 328 328 328 329 331 332 332 334 330 333 336 339
324 324 324 323 322 321 321 320 321 322 320 320 320 320 320 319 321 322 321 321 321 319 318 319 320 319 316 318 317 318 319 320 318 318 319 318 320 316 301 303 311 313 305 297 297 297 299 304 316 323 321 309 306 300 296 296 296 297 296 296 296 297 296 296 297 315 327 330 330 328 326 327 327 329 328 327 329 329 330 332 333 333 335 335 336
Wind_Speed
12 13 13 13 12 11 9 9 9 9 8 9 9 9 8 8 8 8 7 7 6 6 6 5 5 5 5 5 5 6 4 4 4 4 5 5 5 5 5 5 5 4 4 3 3 2 2 2 3 2 2 2 2 2 2 3 2 2 1 2 2 2 3 3 3 2 1 4 2 3 4 3 5 2 0 2 2 1 3 1 1 1 2 3 2
13 13 13 13 11 12 10 9 10 11 9 9 9 9 9 8 8 8 7 7 6 6 5 5 4 4 4 4 5 6 5 4 4 4 4 6 5 4 4 4 5 4 4 3 2 2 2 2 2 2 1 2 1 1 1 1 0 1 2 0 1 3 3 5 5 4 2 3 3 4 5 4 2 1 2 4 2 3 5 5 3 3 2 3 3
13 13 13 12 13 13 11 10 10 10 11 10 9 9 9 8 7 8 7 8 7 6 6 5 4 3 2 3 2 5 3 3 4 4 3 6 6 5 4 4 4 4 4 3 3 2 2 2 2 3 1 1 2 2 2 1 0 1 1 2 2 3 3 4 4 7 3 4 2 2 3 6 3 3 3 4 4 4 4 5 4 6 5 6 3
14 14 15 14 13 12 11 10 10 10 10 10 10 10 9 8 8 8 7 7 7 7 6 6 5 3 2 1 2 1 4 4 4 4 3 4 6 6 4 4 4 4 4 3 3 3 2 2 2 2 2 1 1 1 1 1 1 0 1 2 3 2 3 5 4 5 6 3 2 2 2 1 5 3 3 3 5 5 5 7 3 7 3 4 1
14 15 14 14 14 14 12 11 11 10 10 10 10 10 8 10 9 9 7 7 7 7 7 5 5 5 3 2 3 3 3 4 4 5 5 4 4 5 5 4 4 3 4 3 2 3 2 2 2 2 2 2 2 3 1 1 1 1 1 0 3 4 3 3 4 4 6 5 4 1 4 2 4 3 4 3 3 4 6 7 2 4 9 3 3
14 15 14 14 14 13 13 12 11 11 10 10 10 10 9 10 10 9 8 7 7 8 8 6 6 5 4 4 5 4 4 4 4 5 5 5 5 5 6 5 5 4 3 2 2 2 3 2 2 2 3 2 1 1 1 1 2 1 2 2 2 3 3 3 3 4 4 3 3 4 4 4 2 3 2 4 3 5 5 6 4 3 6 4 3
13 13 14 15 15 14 14 13 12 11 11 10 10 10 10 10 10 10 8 7 8 8 9 7 6 5 6 5 4 4 4 3 2 1 3 4 3 5 5 5 4 3 4 3 2 1 1 2 2 2 1 2 2 2 2 3 3 2 1 1 2 3 2 2 2 4 3 2 3 3 3 3 3 3 3 2 3 2 4 4 5 2 4 4 3
13 13 14 14 14 14 14 14 12 11 11 11 10 10 11 10 11 10 8 8 8 8 9 8 6 6 6 5 4 3 3 3 3 3 2 2 3 3 4 4 4 2 2 3 2 2 1 2 1 1 1 1 0 1 1 1 2 2 1 2 1 1 2 2 4 4 1 2 4 4 2 2 2 3 5 3 2 2 3 2 4 4 5 7 7
14 13 14 14 15 14 14 13 13 12 11 11 10 10 10 10 10 10 9 8 8 10 9 9 7 6 6 5 4 3 2 3 4 3 3 3 3 3 2 3 4 3 2 2 3 2 2 1 1 1 1 1 2 2 2 2 1 2 1 1 1 0 1 2 2 2 4 3 2 3 4 3 1 2 2 2 3 3 2 2 1 4 5 2 3
14 14 14 14 14 14 14 13 13 11 10 10 11 10 11 10 11 11 10 8 8 10 10 10 9 7 6 5 5 4 3 2 2 3 3 3 3 3 3 2 3 4 4 3 3 3 2 2 2 1 2 1 2 1 1 1 1 2 1 0 1 1 1 1 1 1 2 4 2 1 2 2 2 0 0 1 2 2 3 3 1 1 4 4 5
13 14 13 14 13 13 13 14 12 11 10 10 10 10 11 11 11 11 10 8 9 10 10 10 10 8 7 6 6 5 4 3 3 3 3 3 3 4 4 3 2 2 3 4 4 4 3 2 3 2 2 1 2 2 2 2 3 3 2 2 1 1 1 2 2 2 1 2 3 1 3 0 1 1 1 2 2 2 4 5 3 5 6 1 1
14 13 14 15 14 14 13 13 13 12 11 11 10 10 10 11 11 12 11 10 9 9 10 10 10 9 8 7 7 6 5 4 4 4 4 4 4 3 3 2 2 3 2 2 3 3 3 2 1 1 1 2 2 3 1 1 1 1 1 1 1 1 1 2 3 3 4 1 5 0 1 1 2 3 1 2 1 2 3 3 3 2 3 6 5
15 14 14 14 14 13 13 13 12 12 11 11 11 11 10 10 12 12 11 11 10 10 10 10 10 10 9 8 7 6 5 5 4 4 4 3 3 3 4 3 3 2 2 3 4 3 3 2 2 1 1 2 1 1 0 1 1 2 1 2 1 1 1 2 2 2 2 4 4 2 3 2 1 1 1 3 3 1 2 3 5 6 6 4 4
15 15 14 13 13 13 13 12 12 11 12 12 12 10 9 9 11 12 12 11 10 10 10 10 10 9 9 8 7 6 6 6 5 5 5 3 3 3 4 4 4 4 3 2 2 3 3 3 3 2 1 1 1 1 1 1 1 2 1 2 2 1 1 2 2 2 2 3 3 4 4 1 2 2 0 3 2 2 2 3 3 4 5 5 6
13 14 14 14 14 14 13 12 12 12 13 12 11 10 10 10 11 12 12 12 11 11 10 11 9 10 9 8 7 7 7 6 6 5 4 5 4 5 4 3 4 3 3 3 2 2 3 2 3 2 2 2 2 2 2 2 1 2 2 2 3 1 1 2 2 2 2 1 3 3 3 5 2 2 4 2 2 3 3 3 4 4 3 3 4
14 14 14 16 14 14 13 12 12 12 12 11 12 11 11 10 11 12 12 12 12 11 11 10 10 9 9 9 9 8 6 6 5 5 4 4 4 3 4 4 3 2 3 3 4 4 4 4 4 4 3 3 3 2 2 2 2 2 2 2 3 2 2 2 3 2 3 2 3 2 3 4 3 4 5 3 3 4 3 3 3 3 4 4 4
13 13 14 15 14 14 13 13 12 12 11 11 11 12 12 12 12 12 12 11 12 12 12 11 10 10 10 10 9 9 9 8 7 8 8 7 5 5 5 6 5 3 3 4 5 4 4 4 3 3 4 3 3 3 3 2 2 3 3 2 3 2 1 2 3 2 3 3 2 2 3 3 3 3 4 4 2 3 4 4 3 3 3 4 4
12 12 13 14 14 14 13 12 12 12 11 11 12 12 11 11 12 13 12 12 12 12 12 11 10 10 10 10 10 9 8 9 8 7 7 6 6 5 5 5 5 5 4 2 2 4 4 4 4 3 3 3 2 3 3 3 3 3 2 3 3 2 2 2 3 3 3 3 3 3 2 3 3 4 4 3 1 2 4 4 4 3 2 3 4
13 12 12 12 12 12 12 12 11 11 11 11 12 11 10 11 11 11 13 13 13 11 11 10 10 9 9 10 10 9 8 8 7 7 6 6 7 6 6 5 5 4 4 3 3 3 4 5 4 5 5 5 4 4 4 4 4 4 3 4 3 3 3 3 3 3 4 2 2 3 3 4 3 4 5 5 2 3 3 4 4 3 3 4 5
12 13 12 12 12 12 12 11 11 11 10 10 10 10 11 11 11 11 10 10 11 11 10 11 11 10 9 9 9 9 8 7 7 7 7 7 6 6 6 6 6 4 5 5 5 5 4 5 6 6 5 5 5 4 5 5 4 3 3 4 2 3 3 3 4 3 3 1 2 3 3 4 3 4 4 4 4 3 4 5 4 4 4 4 3
11 11 11 12 12 12 11 10 9 9 9 9 9 10 10 10 10 11 11 12 12 11 10 10 9 10 10 9 9 9 9 8 9 8 8 7 6 6 6 5 4 5 4 5 5 5 5 5 5 4 4 4 3 3 3 3 4 4 4 4 3 3 3 4 3 3 4 3 3 3 4 4 4 4 4 4 5 4 4 4 3 3 4 3 3
6 6 6 9 9 10 9 7 8 8 8 9 8 9 9 10 9 10 10 10 10 10 10 9 9 9 10 9 9 8 8 8 9 9 9 8 7 7 6 5 6 5 5 5 6 6 6 5 5 5 4 4 4 4 5 4 4 4 4 5 5 5 4 4 3 4 3 3 3 4 4 4 4 4 4 5 5 5 5 5 4 4 4 4 2
7 6 6 4 5 5 1 5 8 9 8 9 9 9 9 9 9 9 9 10 10 10 9 8 8 8 10 9 9 8 8 9 9 9 10 9 9 8 7 7 7 7 6 6 6 6 5 5 5 4 4 5 4 5 5 4 4 4 4 5 3 4 4 5 4 4 4 4 4 4 4 4 4 3 3 5 5 4 4 5 5 5 5 5 5
8 8 8 7 4 1 2 1 3 5 6 8 8 7 7 8 9 8 10 9 9 7 8 8 8 8 8 8 7 7 8 9 9 8 9 9 8 8 8 8 8 7 7 7 6 5 6 5 5 5 5 6 5 5 5 5 5 5 5 5 5 5 5 5 4 4 4 4 4 4 4 4 3 4 4 5 4 4 4 4 5 4 4 5 4
9 8 8 8 7 7 6 4 2 2 2 3 5 6 6 8 8 8 8 8 7 6 5 5 5 5 6 6 7 7 7 7 7 6 8 8 8 8 7 7 7 8 8 7 7 6 6 6 6 6 6 6 6 6 5 6 5 5 5 5 5 5 5 5 5 5 4 5 5 5 4 4 4 4 5 5 4 3 4 5 5 4 4 4 4
10 9 8 7 6 5 4 4 3 2 2 1 1 1 3 3 5 6 7 8 8 7 7 7 7 7 6 5 6 7 8 8 8 8 8 8 8 8 8 7 8 8 8 8 7 7 7 7 7 6 6 6 6 6 5 6 6 6 6 6 6 6 6 6 6 6 6 6 5 5 5 5 5 5 5 4 4 5 5 6 5 5 5 5 5
12 12 10 9 8 7 6 5 5 5 6 6 6 5 4 3 2 3 5 7 8 8 9 9 9 9 8 8 7 6 6 6 7 7 7 7 9 9 9 8 7 8 8 9 9 8 7 7 7 8 8 7 7 7 6 6 7 7 6 6 6 6 6 6 6 7 6 6 6 6 6 6 6 6 6 5 5 5 5 5 5 5 5 5 6
9 9 10 8 7 7 7 6 4 4 4 4 4 4 6 6 8 9 8 7 6 7 9 9 8 8 8 7 6 5 5 6 6 6 6 7 7 8 8 7 6 7 8 8 9 9 8 8 8 8 8 7 7 7 8 8 7 7 7 7 7 7 7 7 6 6 6 6 6 7 8 6 6 6 6 5 5 5 4 5 4 5 5 6 6
10 10 8 7 6 4 4 4 5 5 5 5 4 4 3 5 7 10 11 11 9 9 10 10 8 8 7 6 6 5 4 4 5 5 5 6 6 6 6 6 7 7 7 8 9 9 8 8 7 7 8 7 8 8 8 8 8 8 8 7 7 8 8 7 7 7 7 6 7 7 7 8 3 2 2 4 6 6 6 6 6 5 6 6 7
10 7 5 5 5 5 5 4 3 4 5 5 4 5 5 7 9 11 10 8 8 9 9 8 8 8 6 6 7 6 7 5 5 5 4 4 5 5 5 6 7 7 7 7 7 7 8 7 7 7 7 8 7 7 5 6 3 4 5 6 6 6 7 7 6 6 7 7 7 7 6 1 2 4 6 6 7 7 6 7 7 6 6 7 7
8 8 8 7 6 4 4 4 3 4 6 2 4 4 6 5 3 6 7 7 8 10 10 9 9 7 7 6 5 6 8 8 8 6 4 5 7 6 5 5 6 7 7 7 7 8 9 8 8 8 9 8 8 4 9 6 2 2 5 7 7 7 7 7 7 7 7 7 7 6 6 6 7 7 9 10 9 8 8 9 10 9 8 7 7
7 8 9 9 7 6 5 4 5 7 7 4 5 5 5 4 3 3 2 2 5 6 8 8 8 9 8 8 7 7 9 9 8 8 8 8 7 6 6 7 6 7 7 7 8 8 8 8 8 8 8 8 3 8 6 5 2 3 6 7 8 8 8 8 7 7 6 6 7 6 7 6 6 3 3 4 8 10 10 10 10 10 10 12 11
9 8 8 8 8 7 6 7 7 6 6 5 5 6 6 4 2 1 4 4 5 7 7 7 8 9 9 9 11 11 11 10 9 9 9 8 9 8 8 7 9 8 7 8 7 7 7 7 8 7 7 6 4 7 7 6 4 4 6 8 8 8 8 8 8 7 7 6 5 5 6 5 4 8 4 6 5 4 9 11 11 11 11 12 12
8 8 7 8 7 7 8 8 8 8 8 7 7 7 6 5 6 7 8 7 7 8 6 4 2 1 3 6 8 8 8 8 8 8 8 8 10 10 8 7 8 8 8 7 8 7 6 6 6 6 5 3 6 7 7 5 4 4 3 6 7 8 8 9 9 8 8 7 5 5 5 5 4 3 3 4 4 5 5 5 7 8 8 11 14
7 8 9 8 8 9 9 9 8 8 7 8 8 8 8 8 8 9 9 9 9 8 7 6 7 7 7 7 6 3 2 3 7 9 8 8 8 8 8 6 6 6 7 7 5 5 5 6 6 5 5 2 6 6 5 5 5 4 2 5 6 6 6 7 7 7 7 7 5 5 5 5 3 2 4 5 3 5 5 6 7 8 8 8 8
7 9 9 8 8 9 10 9 7 7 8 9 9 8 9 10 10 11 11 10 10 9 9 8 8 9 9 9 7 7 6 5 5 2 7 6 5 5 5 6 5 5 5 4 4 4 5 6 6 5 7 7 5 9 6 5 4 5 4 5 5 3 5 5 4 4 3 3 4 3 3 3 3 4 7 8 5 5 6 7 7 8 8 8 9
7 7 8 8 8 9 11 9 8 7 8 9 9 10 10 9 10 11 11 10 10 10 9 9 9 8 8 8 7 7 7 7 6 6 6 5 4 4 3 1 3 4 4 4 4 4 3 4 3 3 2 7 7 9 10 9 8 7 6 4 3 3 3 4 3 2 3 3 2 1 3 3 1 7 7 9 9 8 6 7 7 8 8 8 7
8 8 8 10 10 10 11 11 11 10 9 8 9 10 10 9 10 10 10 10 10 10 9 9 8 8 8 8 7 6 7 7 7 7 7 6 5 5 4 2 1 1 4 5 4 3 3 2 0 2 3 8 7 9 11 11 10 10 8 3 3 4 4 4 4 4 2 2 5 6 1 3 5 5 7 8 9 8 6 8 9 10 10 10 9
8 8 9 10 10 12 13 12 12 11 8 10 10 10 10 10 9 9 9 11 10 9 9 9 9 8 7 7 7 7 7 6 7 7 6 6 5 4 2 2 2 1 3 3 1 3 4 4 6 8 11 9 7 9 11 11 12 12 8 5 4 5 5 5 5 4 5 2 3 7 11 9 7 6 7 6 7 8 6 8 8 10 10 9 8
9 9 9 11 11 12 12 12 11 9 7 7 6 6 9 8 7 6 8 10 8 7 8 8 6 5 5 6 7 7 7 6 7 6 6 5 4 3 3 3 3 1 1 3 3 4 6 4 4 6 6 7 8 7 8 11 13 13 13 7 3 3 8 7 4 4 3 4 5 6 7 8 9 5 4 4 4 5 5 6 8 8 9 9 8
10 9 9 9 8 8 10 11 9 9 8 7 6 7 8 7 7 7 9 10 7 6 7 7 5 5 7 7 6 6 6 6 6 5 5 5 4 5 4 2 2 3 6 6 6 4 3 4 5 5 5 5 5 7 9 12 12 13 14 11 4 6 5 5 4 2 5 5 4 5 6 7 8 6 4 3 2 3 4 5 6 6 5 7 9
9 10 8 8 8 9 10 10 9 9 8 7 7 8 8 7 8 9 9 8 8 7 6 7 6 6 6 6 6 6 7 5 5 6 5 5 5 4 2 2 1 5 6 5 2 2 3 3 4 4 5 6 8 9 8 11 11 11 12 13 6 5 5 6 4 3 3 2 3 1 3 9 10 7 7 6 5 4 4 5 4 4 8 8 6
8 8 9 9 8 8 9 9 8 8 7 7 8 9 8 8 8 8 7 7 7 7 7 6 5 6 6 6 5 5 5 4 5 5 5 5 5 6 5 3 4 4 6 8 6 5 5 4 4 4 4 6 7 8 9 8 9 10 10 9 9 7 12 7 4 1 3 2 2 2 3 9 11 9 9 9 8 7 7 4 3 6 7 7 7
10 9 8 10 8 7 7 7 7 7 7 7 8 8 8 9 8 6 7 7 7 7 7 6 6 5 5 4 4 6 5 4 5 5 4 5 5 4 4 3 2 3 4 5 4 3 3 4 4 4 5 5 5 6 7 7 7 8 9 8 9 9 9 6 6 3 2 4 4 5 6 10 11 11 11 10 10 8 6 9 11 10 9 8 6
10 10 10 9 9 9 7 8 6 7 6 6 7 8 9 9 7 6 6 6 6 6 5 6 5 5 5 4 4 4 4 4 5 4 5 5 5 4 4 3 1 2 2 2 2 2 2 2 2 3 3 3 3 2 4 5 5 5 5 6 4 5 8 9 6 1 4 5 7 10 11 12 11 11 12 12 10 10 13 11 11 10 9 6 6
10 10 9 9 8 8 8 8 7 6 6 6 6 7 9 8 6 6 6 5 5 6 6 5 5 4 4 3 4 4 4 5 5 4 3 4 4 3 3 1 1 1 1 1 1 1 1 1 2 2 2 2 2 1 2 4 3 2 4 4 2 3 5 7 8 6 6 9 10 10 12 13 13 11 8 6 6 5 3 7 11 11 8 7 6
10 11 10 9 9 9 8 8 8 6 6 7 7 7 7 7 6 6 6 5 5 5 5 4 4 4 4 3 3 2 2 3 2 1 1 2 1 0 1 0 1 1 1 0 1 1 1 1 1 1 1 1 2 2 2 4 4 4 4 2 3 3 6 8 7 4 4 5 6 7 7 9 11 13 13 12 11 10 9 9 7 7 6 5 5
9 10 9 9 8 8 8 8 7 6 6 6 6 6 6 5 5 5 6 5 4 3 4 4 4 4 3 3 3 2 0 2 3 3 3 2 2 1 1 2 3 3 1 1 1 2 2 2 0 1 0 2 2 3 6 6 6 6 5 5 4 4 5 4 4 5 6 7 8 8 10 9 7 8 8 7 6 6 6 6 6 5 6 6 6
10 9 8 8 9 9 9 8 7 6 6 6 6 5 5 4 4 4 4 4 5 4 3 3 2 2 3 1 2 2 2 2 2 2 3 4 5 4 3 4 7 6 7 6 4 2 2 2 1 2 1 0 1 4 6 5 4 4 4 5 6 6 6 6 5 6 7 7 7 6 5 5 5 4 5 5 4 5 4 5 6 6 5 5 6
9 8 7 8 8 9 10 9 7 6 6 5 5 4 4 4 4 4 4 4 4 3 3 2 2 2 3 2 2 3 3 2 2 1 2 5 7 7 6 6 5 8 8 7 7 6 6 6 4 3 4 5 5 6 4 5 4 2 2 4 6 8 8 7 10 13 7 6 6 5 5 4 4 4 5 5 5 5 5 5 5 5 6 6 5
9 8 8 8 8 7 8 9 8 7 6 5 4 4 4 4 4 4 4 4 2 2 2 3 3 3 4 3 2 2 2 1 1 1 2 0 5 7 7 7 7 4 5 6 5 4 5 7 7 5 7 13 10 8 8 6 6 5 4 4 5 5 7 9 8 6 5 6 6 5 5 5 4 5 5 5 5 5 5 5 6 6 6 6 5
Wind_Direction
170 175 172 172 169 167 169 168 167 165 166 160 169 167 167 168 159 164 165 164 165 169 174 175 166 166 165 170 156 151 152 142 163 147 149 114 111 114 147 140 139 139 140 149 131 130 137 118 138 131 143 97 88 79 69 48 38 319 97 302 348 33 33 14 51 21 34 114 124 110 115 144 118 141 130 138 166 156 95 189 51 217 142 140 127
168 170 174 172 172 168 168 169 168 168 172 170 176 173 171 173 168 166 165 169 174 175 169 177 170 168 168 167 157 141 147 166 146 165 134 123 128 136 147 122 138 143 140 145 143 150 144 147 147 142 118 109 79 97 96 123 242 348 345 257 86 32 59 19 28 293 128 77 146 129 116 85 83 157 160 104 141 108 146 131 201 258 59 82 82
171 170 174 174 173 170 170 173 174 175 174 176 177 175 173 176 172 170 171 172 176 174 173 172 173 171 166 147 157 131 135 129 118 109 133 131 139 136 124 133 153 145 149 158 154 165 145 144 166 144 152 139 174 179 152 140 1 3 345 17 340 133 76 62 45 352 54 103 98 183 135 144 105 96 70 66 57 92 99 77 303 59 22 43 12
176 175 175 176 173 172 172 176 177 179 175 178 178 177 176 176 172 175 171 179 174 174 182 170 162 150 122 46 62 67 125 116 120 138 131 133 140 142 143 150 160 162 155 167 144 148 156 170 153 137 155 146 177 158 159 121 148 206 5 52 323 352 78 63 36 51 19 347 126 43 114 133 141 89 110 98 89 45 51 58 355 94 31 59 243
179 179 178 176 175 175 176 177 177 182 181 180 183 177 180 175 173 174 173 178 177 168 178 169 159 164 166 149 158 132 137 154 157 154 151 149 157 154 145 157 157 166 152 153 144 143 141 148 143 147 142 163 165 170 196 100 14 96 59 64 22 359 42 73 55 40 57 26 22 243 144 116 35 64 85 18 35 91 84 116 249 42 83 56 64
183 181 180 177 177 173 176 180 183 183 184 183 187 177 181 171 171 174 172 178 179 171 177 176 176 174 171 172 168 173 159 167 164 161 161 169 166 139 140 165 159 167 164 161 129 149 146 146 170 181 158 149 192 23 79 150 181 220 110 334 92 57 1 17 68 80 48 61 95 79 23 23 29 356 315 91 7 341 95 71 28 2 138 142 232
186 184 183 180 179 177 180 184 187 187 182 185 187 178 180 170 171 175 173 176 176 171 177 183 181 186 190 187 179 173 176 151 164 133 140 150 129 142 140 148 161 181 167 169 145 152 154 157 166 210 156 149 162 173 197 235 120 106 13 60 33 44 27 39 346 81 36 2 49 50 50 8 28 11 40 158 123 18 351 130 130 20 25 27 28
184 188 186 186 180 181 184 182 190 189 185 183 186 180 176 172 170 175 174 176 176 171 179 185 188 190 197 201 190 187 178 142 152 159 128 113 139 152 147 145 150 186 162 153 192 182 198 182 185 209 240 61 168 193 238 4 63 78 64 53 49 28 37 20 357 5 85 74 31 345 59 71 18 21 30 8 342 124 165 5 96 83 43 28 341
186 187 186 188 181 185 184 184 188 190 187 184 186 180 174 172 172 175 175 177 173 174 180 184 192 191 197 198 189 185 180 157 153 152 146 160 148 140 154 136 145 158 187 175 186 202 209 206 214 242 229 219 239 199 214 116 134 81 123 155 184 131 12 39 341 0 321 63 49 16 355 337 64 59 66 332 8 337 68 137 72 86 69 101 353
190 189 187 187 184 187 185 186 188 190 184 185 186 180 177 175 175 175 177 181 175 177 182 183 191 193 198 209 192 183 178 153 165 135 156 159 166 153 149 162 173 163 166 192 176 204 210 207 217 223 244 232 268 10 18 124 163 166 195 166 31 4 3 300 307 13 332 336 36 19 2 13 319 81 93 357 54 321 300 319 34 45 155 111 265
189 188 187 186 187 189 184 189 186 185 186 182 187 182 181 181 177 179 180 184 179 182 183 185 190 195 199 201 202 191 184 172 176 171 170 172 177 171 163 163 186 167 176 161 187 191 177 217 238 190 259 164 250 225 217 211 180 181 152 111 212 314 313 337 289 255 263 297 279 126 291 226 72 334 17 12 329 311 346 327 351 16 344 61 121
187 188 188 185 188 192 188 190 185 187 186 180 187 184 186 182 180 181 181 185 185 186 189 190 192 193 200 198 203 205 194 189 192 189 184 182 182 173 159 153 171 168 195 163 180 184 157 207 243 248 229 241 210 229 231 257 275 161 141 175 178 224 296 293 318 329 303 209 278 215 245 271 129 277 2 164 145 7 321 321 309 334 344 318 35
186 189 191 189 190 192 195 192 189 186 189 186 189 187 184 183 184 184 184 186 189 191 194 197 197 195 197 198 200 204 201 203 202 201 191 191 190 175 170 176 168 182 183 190 160 183 162 199 222 237 210 228 306 341 268 269 323 295 65 244 164 243 248 293 281 296 308 321 314 329 294 319 49 276 298 329 70 247 276 281 337 1 313 300 51
188 188 192 192 190 194 198 196 190 189 192 190 191 189 184 185 185 189 187 188 190 196 197 200 204 201 197 199 199 196 204 205 206 204 193 190 188 211 196 179 172 195 163 164 204 163 191 167 186 219 217 220 213 212 252 284 302 297 273 282 248 124 289 250 262 262 250 241 267 305 301 324 312 336 321 250 260 251 287 336 9 338 322 346 303
187 189 190 192 193 195 196 196 193 194 195 192 193 190 187 189 185 189 190 189 193 197 199 203 205 207 202 203 202 199 200 204 207 212 201 194 203 183 206 208 192 175 174 170 180 181 184 191 191 223 186 207 215 222 217 217 236 252 282 286 306 234 240 289 276 273 281 324 275 275 303 284 354 286 279 316 315 323 343 348 358 322 335 326 311
187 188 189 191 195 196 198 196 197 197 196 194 191 187 191 188 185 189 189 190 194 197 201 203 207 206 206 206 205 204 204 207 203 208 213 220 205 219 181 215 235 162 189 180 192 204 201 198 195 197 194 195 203 217 240 231 200 250 275 274 266 239 234 232 255 255 250 246 281 296 287 297 304 315 329 315 337 345 346 331 315 332 334 324 344
187 188 188 189 193 197 200 199 198 199 196 194 189 185 187 184 184 187 190 191 193 195 201 205 204 208 207 208 210 205 205 211 210 205 217 208 215 212 201 200 191 210 203 193 198 197 204 209 210 190 169 201 199 206 225 221 226 239 233 239 268 279 273 270 281 276 278 279 263 262 280 287 289 306 293 296 26 327 313 318 310 323 358 314 310
191 189 190 189 191 196 199 200 202 200 194 191 189 189 188 188 186 186 187 193 196 197 202 201 203 206 206 209 213 218 214 216 221 215 214 216 203 219 215 194 204 200 217 216 178 187 193 208 203 199 198 195 206 202 195 209 219 244 231 246 258 288 281 278 275 285 283 266 278 281 287 284 295 277 265 296 325 297 298 305 319 342 314 298 309
191 193 191 190 189 193 197 199 198 199 197 192 190 189 188 191 190 189 193 193 198 202 203 204 203 206 205 207 211 214 224 228 225 220 216 216 223 200 215 206 209 198 195 215 229 204 195 193 208 203 191 202 194 202 193 202 215 236 237 241 200 217 250 260 259 246 255 272 291 283 280 272 285 295 314 292 344 309 296 299 304 309 296 302 305
189 191 189 186 189 194 195 194 193 193 194 192 190 191 191 190 187 189 193 194 202 207 201 206 206 210 206 200 207 214 216 228 230 221 216 214 217 223 215 205 212 211 203 199 221 217 205 209 198 208 198 196 195 198 202 190 214 237 249 258 144 193 237 248 265 272 275 293 272 273 275 281 288 290 294 303 278 265 295 302 308 309 293 284 296
185 192 190 188 192 193 190 190 190 189 188 188 187 192 191 191 189 189 189 195 200 207 201 205 207 208 211 207 206 203 212 213 221 216 226 225 225 227 223 232 197 217 221 212 209 216 213 218 233 223 214 184 198 206 211 212 217 222 239 253 269 243 244 245 232 254 272 259 263 275 281 285 286 285 286 289 300 286 265 258 262 271 286 293 299
103 116 152 174 179 186 178 181 190 184 182 182 182 185 189 193 190 192 195 196 196 199 198 200 207 205 212 207 216 209 210 215 217 215 215 220 227 219 222 229 228 210 218 220 210 213 208 215 222 214 228 214 195 204 222 210 223 222 239 225 209 214 232 251 266 252 245 265 251 258 269 269 250 259 276 279 278 288 292 300 314 313 317 314 334
140 117 82 67 106 109 124 191 193 192 187 188 186 191 193 191 192 190 200 195 198 194 193 194 199 200 207 210 212 210 210 215 220 217 212 214 210 217 215 220 229 231 204 219 203 214 206 207 229 219 209 224 217 219 216 220 221 228 241 264 258 211 222 239 233 233 242 241 246 251 255 253 251 254 263 265 271 285 299 307 301 300 304 302 307
148 128 140 180 185 123 73 266 210 205 190 194 195 191 191 193 194 194 201 197 195 194 190 192 194 195 198 206 210 220 220 223 219 221 221 221 223 214 205 216 225 232 221 200 212 211 197 203 218 215 209 224 214 226 227 214 215 227 239 235 245 252 251 243 244 254 248 238 249 254 261 268 283 278 268 279 279 273 278 277 285 289 287 296 300
153 147 165 160 153 162 175 196 160 116 157 205 210 194 199 199 196 193 193 188 182 181 176 179 189 196 195 197 200 208 219 225 234 242 242 231 228 232 222 224 229 230 232 208 194 207 203 203 219 215 214 213 216 222 231 238 231 222 224 233 232 233 234 241 250 251 259 265 265 265 261 255 254 261 263 259 267 283 287 293 286 291 291 294 303
166 159 154 160 151 132 136 139 165 212 247 298 317 211 199 207 201 209 193 183 178 177 176 176 172 174 174 191 208 211 212 216 221 226 232 244 243 235 233 224 224 236 232 227 208 208 206 205 219 226 222 216 217 222 227 243 242 229 221 229 227 227 227 232 237 234 232 235 242 244 254 257 257 262 276 290 297 291 281 273 294 307 304 304 295
173 169 163 156 154 150 148 153 165 178 190 203 211 209 183 169 264 245 203 185 180 177 179 183 184 188 183 194 206 213 215 211 212 220 221 226 233 236 235 234 224 225 227 226 219 215 216 218 214 223 227 222 221 224 224 226 240 247 245 242 245 236 234 232 229 232 234 229 231 234 237 243 250 258 269 274 275 278 285 296 284 284 287 292 290
156 158 150 141 150 161 163 163 157 162 175 178 173 191 196 190 208 221 216 200 180 175 190 187 181 183 190 192 201 212 214 209 201 206 213 221 226 230 234 238 244 232 229 229 230 219 215 220 222 222 223 223 219 223 217 222 230 238 238 234 234 242 241 236 237 236 242 241 234 235 240 236 235 236 244 258 259 267 281 282 287 293 297 289 289
124 124 123 140 151 139 140 156 167 175 183 174 194 210 156 157 200 221 222 210 191 190 197 194 189 191 192 179 167 191 217 199 176 172 194 218 226 226 223 227 222 233 235 231 226 232 226 224 223 220 221 222 223 218 219 213 216 224 242 245 242 241 241 241 246 247 237 238 242 247 243 243 241 24 322 288 301 319 300 286 285 282 279 287 287
127 134 126 138 152 167 179 161 169 168 158 162 186 203 190 197 205 213 215 206 189 186 195 193 190 201 191 184 179 176 186 198 188 178 186 207 229 241 232 220 226 227 235 242 247 238 234 220 220 215 216 224 226 232 186 74 352 282 247 254 254 250 253 256 252 249 248 243 243 250 253 94 84 226 231 234 242 249 242 274 294 298 297 291 290
135 173 171 165 168 170 160 169 156 131 110 178 199 187 194 197 212 218 215 201 200 194 197 199 198 193 188 179 179 190 197 208 208 203 190 207 223 230 234 237 232 229 235 228 232 233 234 230 223 219 216 222 230 45 53 102 132 272 271 249 251 255 249 251 249 244 255 261 259 253 259 220 192 204 221 224 236 232 234 236 245 252 265 271 278
156 157 132 132 137 139 141 132 104 82 88 115 151 178 188 193 175 192 182 176 191 204 205 208 209 195 183 196 191 199 205 214 209 209 210 212 216 224 227 223 228 228 221 231 226 230 235 242 234 229 226 228 170 50 47 48 309 225 240 258 251 245 242 239 239 249 250 251 252 252 249 248 241 251 298 218 212 215 220 229 233 241 235 240 246
137 127 125 120 113 107 99 88 80 92 108 106 100 91 73 75 103 173 201 210 215 215 212 212 212 213 208 210 202 202 211 215 215 216 212 210 212 211 214 216 218 224 230 225 231 226 222 227 241 241 241 231 99 52 41 33 1 290 239 247 254 255 252 244 242 241 248 255 261 264 269 272 263 128 221 248 264 247 206 210 227 232 238 240 236
127 122 108 95 95 93 91 90 90 89 85 85 87 87 85 80 74 67 70 69 73 64 53 53 76 100 216 212 215 213 214 214 212 213 212 215 212 208 203 211 214 216 221 220 224 219 218 225 228 228 235 207 80 58 38 29 14 348 302 239 251 255 249 250 248 244 242 238 231 246 250 249 262 265 254 260 265 262 276 254 235 235 241 228 221
122 116 106 99 97 98 91 86 85 89 90 89 82 86 93 91 86 80 71 68 65 61 57 59 56 46 45 50 65 59 151 221 225 217 219 214 209 203 183 197 221 208 205 197 199 209 210 216 217 204 234 130 85 55 38 13 9 337 345 253 246 251 256 257 252 242 245 253 246 238 244 251 239 239 44 31 320 299 285 277 273 275 268 275 271
117 114 110 123 116 101 96 92 88 83 81 79 77 76 86 84 78 74 70 68 68 60 57 51 49 49 47 41 55 84 87 80 58 159 177 159 150 163 162 162 186 192 194 167 173 207 208 224 227 223 198 118 71 28 13 356 346 338 313 243 234 232 251 253 230 249 252 253 252 264 258 253 246 77 42 39 18 315 288 277 279 278 282 279 282
118 117 110 99 106 108 108 105 94 87 88 89 86 77 70 67 69 76 74 69 65 59 51 53 56 49 49 52 58 60 66 53 53 49 50 65 116 117 81 305 178 158 138 165 185 191 203 216 199 219 173 87 66 28 11 1 350 341 294 236 237 247 230 247 239 195 222 223 248 286 298 283 78 67 30 18 8 329 290 283 282 286 290 296 285
108 105 110 110 106 109 110 109 102 91 90 93 92 87 85 79 74 74 75 69 65 70 65 55 46 45 50 59 65 67 64 60 52 40 40 42 37 36 46 39 331 145 154 158 148 135 128 93 87 4 87 94 76 40 18 11 2 353 322 282 231 244 236 228 223 227 232 219 92 76 342 355 61 61 29 16 354 320 291 289 291 293 293 291 294
120 125 126 122 113 109 106 101 99 95 96 98 99 99 89 77 72 71 74 80 74 70 67 65 59 44 46 56 53 54 58 53 51 53 53 44 43 50 21 5 32 34 29 18 349 137 135 118 94 72 82 86 74 50 29 20 16 10 348 266 266 256 251 239 232 217 220 137 109 85 67 65 58 50 33 13 345 335 313 300 297 295 292 292 300
112 114 111 112 117 120 117 116 113 112 115 106 90 81 91 102 105 108 94 85 85 97 102 100 96 82 52 60 72 62 45 46 55 57 52 53 44 55 38 351 0 358 88 110 97 90 98 117 126 131 110 90 83 66 38 30 30 18 5 345 262 256 255 250 243 249 248 197 157 120 100 88 90 65 47 8 353 345 322 317 311 300 296 296 336
114 109 118 122 123 116 110 109 109 116 114 114 113 103 97 98 103 101 96 102 95 74 77 77 84 92 91 84 79 83 77 53 59 65 72 64 58 58 50 9 334 116 83 53 52 61 128 144 140 148 122 99 93 82 55 40 36 29 19 11 45 11 347 325 291 291 272 256 183 180 126 92 63 37 4 345 312 316 300 302 290 290 325 349 332
115 128 124 108 105 109 109 108 113 115 114 112 109 101 98 97 96 96 98 104 117 117 89 85 87 83 81 79 68 55 59 59 47 62 64 73 76 76 65 79 89 99 101 91 75 167 136 116 115 118 116 109 80 64 73 53 41 36 31 22 24 30 352 310 296 269 261 264 286 269 49 39 18 358 338 323 306 281 265 264 285 334 329 323 307
127 128 124 126 126 128 122 119 113 104 104 107 104 99 99 98 95 91 92 96 101 106 114 103 81 81 83 83 90 77 57 59 51 50 63 61 66 72 64 71 102 123 138 145 171 173 161 136 124 115 113 95 89 75 56 66 55 40 33 30 20 10 341 326 337 350 346 325 50 336 30 21 345 329 321 310 300 296 271 240 322 301 286 288 272
144 131 125 115 112 107 101 90 90 100 108 111 111 109 106 103 99 100 99 105 104 101 103 108 112 103 87 73 75 90 79 74 50 42 57 67 67 67 65 52 63 124 138 136 141 148 147 147 136 114 105 103 105 99 83 72 67 54 42 28 12 2 2 351 325 341 329 5 354 349 341 332 315 309 302 299 298 286 270 285 285 279 275 267 267
136 135 134 134 130 125 115 108 99 94 90 96 108 114 114 107 107 109 105 101 102 104 104 98 89 84 79 74 63 50 63 66 80 32 27 33 43 48 61 31 37 86 97 114 126 121 122 115 124 126 103 99 97 124 112 104 118 114 76 34 360 342 344 338 315 25 344 351 347 319 305 299 297 293 285 278 268 256 248 249 253 258 264 270 264
127 127 129 128 128 122 117 108 103 104 104 104 108 112 110 109 110 106 105 103 102 100 95 90 87 82 80 84 83 79 65 52 51 63 68 29 9 21 45 53 38 73 55 79 131 136 147 130 134 102 106 101 102 98 110 103 115 119 139 133 268 300 337 323 302 319 332 294 283 277 277 271 267 258 259 267 281 288 272 267 263 261 262 260 262
146 139 144 144 133 131 127 119 114 108 107 109 110 110 112 118 121 119 109 105 101 97 97 94 91 91 85 62 48 49 68 77 62 101 108 125 135 299 119 99 71 57 85 3 200 162 188 113 72 98 120 147 140 134 65 47 30 14 6 6 187 195 210 249 255 214 241 274 261 261 286 287 279 278 271 266 267 268 265 252 246 242 251 269 275
144 142 143 136 135 130 127 123 118 115 111 113 116 116 122 124 120 114 114 122 118 116 119 122 129 134 128 128 108 96 343 76 52 13 27 31 42 342 45 55 35 19 7 128 95 44 25 22 47 119 167 192 175 96 48 17 18 6 0 348 7 1 355 351 330 349 328 301 294 277 256 248 248 243 241 236 231 230 251 268 271 283 289 285 275
148 144 147 142 139 133 131 130 124 128 125 120 118 121 121 123 120 110 112 107 103 103 88 96 96 90 82 66 102 90 58 66 98 117 79 28 1 0 16 58 55 30 13 5 2 41 57 16 346 31 345 30 287 61 47 30 19 359 347 352 3 359 351 334 20 4 307 289 285 276 276 268 264 283 292 291 294 290 291 292 286 274 278 286 283
150 147 142 133 134 135 136 131 132 135 129 131 139 138 149 132 124 117 113 110 114 117 118 98 87 76 70 60 35 67 56 12 35 49 126 122 77 50 29 4 71 55 45 31 9 24 6 349 345 60 40 4 29 44 43 43 36 13 340 301 305 308 307 301 314 314 296 299 291 291 289 298 304 305 306 302 303 313 310 301 300 302 277 269 284
160 152 145 138 136 139 138 138 141 144 138 142 145 143 130 111 101 105 110 107 109 108 121 120 100 65 31 7 25 32 57 48 24 14 359 44 157 123 101 76 54 46 30 32 57 46 19 9 359 6 80 86 70 53 25 11 9 11 353 335 319 307 297 296 300 312 272 261 283 292 302 302 297 300 303 304 313 304 306 308 305 308 307 299 282